GFSGL_850_spd_000.txt.gz
Wind_Speed
32 31 31 32 35 36 39 39 40 41 41 41 40 39 40 44 47 47 46 44 43 41 38 36 31 27 24 22 22 21 20 19 18 18 18 17 17 21 25 28 30 29 31
23 26 29 33 36 40 44 44 44 45 44 42 41 41 41 42 46 49 48 47 47 45 42 39 35 31 28 25 24 23 22 21 20 19 19 19 20 23 25 29 33 35 36
29 25 25 26 30 35 41 46 49 50 48 48 47 45 44 44 47 50 50 49 49 47 44 42 38 34 30 27 26 25 23 22 21 19 21 21 24 26 28 30 33 36 39
39 38 33 29 30 31 31 40 47 50 52 52 52 50 48 45 47 49 50 51 50 50 48 45 41 36 32 29 28 25 23 20 22 20 20 21 24 26 30 34 38 38 40
42 40 43 35 30 30 34 35 41 47 49 52 54 53 50 49 49 51 52 53 53 53 51 48 43 37 34 31 30 27 23 22 21 20 19 20 24 28 31 35 37 40 41
42 43 40 39 35 30 29 31 35 42 45 49 52 52 53 54 53 50 51 54 55 54 54 51 46 41 39 35 32 28 25 23 21 20 19 21 24 26 28 31 34 38 42
39 42 43 41 38 39 31 28 32 37 41 47 51 52 51 55 52 50 53 53 55 57 55 52 48 45 41 36 32 29 27 23 24 22 20 20 22 22 26 29 31 34 37
42 42 44 43 40 40 40 31 29 34 38 43 46 48 48 52 49 49 53 55 56 55 54 53 50 46 43 38 33 30 27 24 22 19 20 18 18 19 22 24 28 35 38
46 45 45 46 44 39 37 36 29 30 37 41 41 42 49 50 47 50 53 56 56 56 55 53 49 46 40 37 35 30 27 24 21 19 20 16 14 15 17 22 25 32 41
48 47 48 44 42 41 36 34 31 27 31 35 37 41 45 47 47 50 54 54 54 56 54 53 50 45 41 39 36 32 29 24 21 19 17 14 14 15 16 19 23 28 32
53 54 48 48 43 40 36 34 31 27 24 27 33 36 39 43 43 47 50 54 54 57 57 52 47 44 41 39 36 33 27 23 21 19 15 14 15 16 17 19 21 25 29
56 56 56 50 49 43 37 35 33 28 26 25 26 34 35 38 39 43 47 52 48 49 53 50 47 44 42 39 35 31 27 26 21 17 15 14 16 17 18 20 22 24 27
56 61 58 56 51 49 40 37 35 32 28 26 27 32 32 35 36 42 42 43 44 48 50 47 42 42 40 34 29 25 26 22 18 17 16 15 17 18 19 21 23 25 29
62 59 62 57 54 47 48 40 36 37 36 34 30 30 32 33 35 39 39 43 37 44 45 42 39 38 33 33 32 30 24 21 19 18 17 15 17 18 19 20 25 28 33
62 63 58 59 52 49 47 44 38 38 41 44 37 35 33 34 37 39 46 49 47 44 38 36 35 36 37 36 33 27 24 22 19 17 16 15 16 18 19 20 24 29 33
59 59 56 52 51 46 42 46 39 39 40 39 42 38 38 33 30 34 44 52 52 44 39 43 45 45 42 37 33 29 26 21 18 16 15 16 17 18 20 21 24 29 34
51 52 50 47 44 41 34 40 41 37 34 37 35 33 37 35 34 30 34 42 41 40 41 46 49 46 38 34 29 29 24 21 18 16 16 15 17 18 20 23 26 29 34
44 44 42 42 40 36 32 36 40 35 36 33 35 30 32 30 29 31 31 45 42 41 44 47 43 40 37 32 32 29 26 22 19 18 15 15 16 19 21 23 26 31 34
43 41 39 37 34 34 34 33 37 34 32 30 31 32 30 28 26 28 34 49 51 54 50 40 38 37 32 32 30 28 24 21 18 16 15 15 15 19 20 24 28 30 33
40 39 35 37 36 32 30 30 35 34 30 30 30 30 30 30 29 33 42 45 47 51 45 40 41 35 33 32 30 26 22 19 17 15 14 14 15 17 20 25 29 32 33
35 35 33 31 32 30 26 30 31 31 29 28 29 28 32 39 35 37 41 44 48 48 40 36 36 36 33 31 27 22 19 16 15 14 13 14 14 15 19 25 29 31 35
30 31 29 28 25 23 23 26 28 26 25 24 23 24 27 34 33 38 44 46 41 42 39 34 33 31 28 24 21 18 15 14 13 13 13 13 14 15 21 26 31 32 36
24 23 23 21 19 19 21 23 21 20 19 19 21 23 30 34 32 41 44 39 39 37 31 29 27 27 24 20 16 14 12 12 12 12 12 13 14 17 22 27 32 35 37
18 16 14 12 10 11 12 11 12 13 16 20 25 26 27 29 31 33 33 36 34 30 28 25 24 21 18 15 13 12 11 12 11 12 13 14 15 18 23 29 33 35 37
14 12 10 6 4 3 5 7 10 14 18 20 20 19 21 25 27 28 31 28 25 25 22 20 18 15 14 12 11 10 11 11 11 12 12 14 17 18 25 29 34 36 37
14 12 9 7 4 2 2 5 8 10 12 15 16 15 16 21 24 26 23 22 22 20 19 16 15 13 11 9 8 9 10 11 10 10 12 15 17 20 26 31 35 36 38

GFSGL_850_spd_003.txt.gz
Wind_Speed
28 29 29 23 19 21 24 21 24 30 34 35 36 39 42 44 49 51 52 52 51 50 49 47 45 41 38 33 29 25 22 20 20 20 18 15 12 11 13 16 18 20 20
31 30 29 27 27 23 22 22 23 27 33 38 38 39 42 44 44 50 55 55 54 54 53 52 49 45 42 37 32 27 23 21 20 20 20 19 15 15 16 18 20 22 21
33 32 30 29 30 29 27 24 23 26 29 34 39 42 45 45 47 49 53 56 56 55 55 53 52 50 46 42 37 31 27 24 22 22 22 20 19 18 18 20 22 24 21
32 32 33 32 31 32 32 28 27 28 28 31 36 39 44 47 49 50 53 55 56 57 56 55 55 54 49 45 39 33 30 28 25 26 24 23 21 20 20 20 21 24 21
35 34 33 34 34 34 32 33 32 32 32 31 34 37 42 46 48 51 54 56 58 58 59 59 58 56 51 47 43 39 36 33 30 28 26 25 23 22 19 18 18 19 17
38 37 37 35 36 36 37 36 34 36 34 32 34 36 40 47 47 49 52 55 58 61 63 62 61 59 55 51 47 42 37 35 32 30 29 27 24 23 19 15 15 14 13
37 40 42 41 38 38 38 37 37 35 37 34 32 34 39 42 45 47 50 55 58 60 63 65 66 62 59 55 50 45 41 37 34 30 29 27 24 21 17 14 15 15 17
38 40 42 46 45 42 42 41 38 35 34 35 32 32 34 39 41 45 47 53 59 58 60 64 66 64 61 59 53 49 46 41 37 35 32 29 23 20 17 15 14 16 18
39 41 43 46 48 49 46 45 45 40 36 31 34 31 33 36 38 37 43 51 56 58 58 60 64 65 62 62 56 52 47 42 38 35 32 29 23 20 18 14 12 14 17
45 48 50 49 50 51 52 50 48 44 40 33 32 33 31 34 34 35 37 48 57 59 56 58 60 63 62 62 58 54 49 44 41 39 33 28 25 19 16 14 13 12 14
50 51 52 55 57 56 55 55 54 50 45 39 34 32 34 32 32 32 36 44 51 56 56 59 62 63 60 57 55 52 48 41 42 37 32 30 25 22 19 15 12 11 12
57 61 62 60 59 60 60 58 55 52 47 43 40 36 37 33 31 28 33 42 45 52 54 55 56 55 54 54 51 47 43 45 41 38 35 31 28 24 20 15 12 12 14
66 68 68 67 64 61 61 60 56 53 50 45 42 41 42 35 31 28 31 37 50 50 47 47 48 48 51 47 50 47 46 46 42 38 35 31 27 22 18 15 13 15 15
66 67 65 64 63 61 59 58 54 53 51 49 44 43 44 43 37 30 33 37 49 48 42 38 39 37 44 46 43 40 45 43 40 37 31 26 24 21 20 16 15 17 18
56 56 55 55 54 55 54 52 49 49 44 46 44 41 43 44 42 38 32 39 49 50 44 33 30 33 38 39 42 41 39 38 35 31 28 27 24 22 19 17 15 16 18
50 48 45 44 45 45 45 51 47 42 38 41 38 37 39 37 36 37 29 34 44 52 45 40 38 43 50 46 44 43 41 39 34 29 28 27 25 23 18 16 15 16 17
45 46 44 41 41 41 40 37 39 41 28 33 35 38 33 37 31 31 26 25 44 45 46 45 43 49 51 50 50 48 45 38 36 32 31 28 25 21 17 15 14 14 16
43 44 44 43 41 40 37 34 33 34 33 31 31 28 34 31 34 25 23 26 41 43 48 47 47 50 54 54 50 47 44 41 35 34 32 27 23 20 16 14 13 14 17
39 41 40 40 39 38 36 36 34 35 37 30 30 25 21 30 28 29 22 36 43 45 45 43 47 46 45 48 46 46 44 39 35 32 28 25 22 18 14 12 12 13 17
39 37 35 35 36 37 34 33 33 30 26 28 29 26 20 18 27 32 25 32 33 42 43 44 44 37 40 42 45 44 40 35 32 28 24 21 18 14 12 11 11 14 17
33 34 33 33 33 31 29 27 27 25 25 26 26 23 18 18 29 34 27 31 33 36 40 44 36 34 37 40 38 37 36 31 28 25 21 18 16 13 12 11 11 14 18
30 31 30 29 29 27 23 20 18 18 23 23 21 18 14 18 26 31 27 31 33 34 33 31 30 28 31 32 35 34 29 25 24 21 19 17 14 13 12 10 11 15 19
25 25 24 22 21 19 15 13 14 15 16 15 13 11 12 18 26 28 27 29 27 25 26 26 25 24 26 28 27 23 21 20 19 18 16 14 12 11 11 11 13 16 20
22 22 21 18 16 13 9 7 6 5 6 6 8 9 11 12 19 19 21 22 21 24 25 22 20 24 27 25 22 21 20 18 17 15 13 12 10 10 11 12 15 18 22
22 21 20 19 18 16 13 10 8 5 2 0 2 5 7 11 17 15 16 19 22 24 23 22 24 24 20 19 19 17 16 15 14 13 11 10 9 10 11 14 17 20 24
24 23 22 21 20 18 16 15 14 12 10 8 7 5 6 11 15 17 20 22 25 24 23 22 21 20 19 17 15 14 12 12 11 10 10 9 10 11 12 16 18 21 27

GFSGL_850_spd_006.txt.gz
Wind_Speed
28 28 26 27 28 25 24 21 21 23 22 22 24 28 32 38 43 53 57 57 56 56 57 56 55 52 50 46 42 38 35 32 29 27 27 26 26 25 20 17 12 9 10
25 24 25 26 26 27 28 27 25 20 24 27 26 28 30 35 39 46 54 61 60 57 58 57 57 56 54 51 47 43 40 36 34 32 29 29 29 27 23 20 15 13 13
25 26 26 25 25 25 27 27 27 29 27 23 25 28 30 34 38 43 45 57 62 59 58 59 60 61 59 57 53 48 44 41 38 36 33 32 31 29 27 24 19 15 15
30 28 29 30 29 28 27 27 27 28 28 30 29 25 28 30 36 41 45 50 55 59 61 60 60 63 63 62 57 53 49 46 44 41 37 34 33 31 29 26 22 17 17
31 32 33 32 31 33 32 31 30 28 30 29 30 32 30 32 35 38 42 49 52 54 59 61 63 63 64 64 62 59 54 51 48 45 43 39 37 35 33 29 24 19 20
26 29 34 38 40 36 36 36 37 36 34 34 32 31 32 31 38 37 36 40 47 53 58 61 63 65 67 66 65 62 59 57 54 50 46 44 40 38 34 31 26 22 19
28 29 33 37 41 43 43 42 41 42 40 39 38 36 35 35 31 35 35 36 38 48 54 59 62 64 67 68 68 65 63 60 55 50 49 45 42 38 34 32 28 25 21
36 36 37 37 39 43 46 47 48 49 48 47 45 42 39 40 36 30 33 36 38 43 51 57 61 61 66 69 70 69 68 63 59 54 48 42 38 36 33 30 26 24 21
43 44 44 44 44 44 46 49 52 54 55 53 53 50 45 43 41 36 29 34 40 45 48 54 59 62 65 66 69 70 68 65 59 55 50 46 42 38 33 32 29 26 23
48 50 51 52 53 54 54 54 54 54 59 60 58 56 51 48 43 42 32 33 39 47 47 52 56 61 60 61 61 66 70 69 64 57 51 47 42 39 37 35 30 26 21
47 54 58 60 62 65 65 64 62 61 60 61 64 63 58 52 46 42 40 34 40 44 47 51 54 55 51 56 51 59 68 66 64 56 50 48 43 39 36 39 31 26 23
58 62 62 62 63 63 61 64 63 61 60 61 60 65 63 57 49 44 42 41 38 43 45 48 50 49 45 51 45 51 53 55 57 54 53 51 47 40 41 37 30 26 23
60 63 63 61 59 56 53 53 49 52 50 55 51 51 59 57 52 45 44 41 39 42 48 52 48 45 35 41 42 51 45 53 55 57 56 52 46 41 42 35 29 27 24
58 59 55 50 50 47 44 42 41 40 41 41 40 41 44 41 51 46 44 39 40 39 45 51 45 38 33 41 40 47 46 50 54 58 54 47 42 43 37 32 30 26 23
50 50 47 44 42 42 41 40 39 40 39 41 41 37 37 39 42 37 40 39 34 37 42 49 42 38 34 45 43 51 47 50 48 48 49 46 43 39 35 32 28 25 22
43 43 42 43 43 43 43 45 40 39 40 41 45 46 51 47 41 35 30 30 24 24 42 46 40 42 40 45 45 51 50 50 47 46 44 42 41 37 34 30 27 23 23
41 42 42 40 41 41 42 42 44 41 36 36 36 39 43 45 42 39 35 31 26 24 45 44 42 43 40 43 45 52 54 50 47 45 43 43 39 35 33 29 26 24 21
39 41 42 41 40 40 40 41 40 39 39 39 27 27 24 28 30 34 37 29 27 28 44 42 40 39 39 47 47 48 47 46 42 44 44 42 42 40 35 30 26 22 17
37 40 40 41 41 40 41 41 40 38 37 36 33 24 16 19 22 29 29 33 28 31 39 39 38 37 40 41 45 48 49 46 44 44 44 43 40 34 29 25 22 21 18
35 34 35 36 38 38 37 36 35 33 32 31 26 22 18 19 17 17 27 33 27 27 35 36 36 38 39 42 46 47 47 48 46 44 41 38 34 31 28 23 22 18 15
33 34 32 32 33 34 34 34 31 28 26 23 21 19 18 19 17 13 17 30 24 21 34 36 37 34 31 37 41 43 45 47 44 41 37 34 30 26 22 21 18 17 15
28 27 27 27 27 27 28 28 23 21 20 23 21 19 16 13 13 11 17 23 22 21 28 34 32 30 31 34 36 37 41 40 39 37 33 28 24 22 21 20 18 15 13
23 23 23 23 22 21 20 17 17 17 16 14 14 12 10 7 5 10 17 20 18 16 14 22 27 30 28 26 25 27 33 35 35 31 28 25 23 23 21 18 15 12 11
21 21 21 21 20 19 18 18 16 14 13 12 10 8 5 1 6 13 13 13 11 14 17 20 23 23 19 17 19 23 26 27 25 23 21 20 20 19 18 16 14 12 11
22 21 20 20 20 19 19 18 17 16 15 14 12 9 6 5 8 8 7 9 12 15 19 20 19 17 17 22 26 27 27 25 22 20 19 20 19 17 15 14 12 11 13
25 24 23 21 21 20 20 20 19 18 18 16 14 11 10 9 10 10 11 13 17 20 21 21 22 23 24 25 24 22 19 19 18 19 19 17 16 14 12 10 9 11 13

GFSGL_850_spd_009.txt.gz
Wind_Speed
21 21 21 22 22 21 21 21 22 23 24 22 18 17 18 22 24 26 30 34 44 51 54 55 56 55 57 55 50 47 44 41 37 32 30 29 31 32 33 33 29 24 20
22 23 23 22 22 23 24 24 24 25 24 23 23 22 19 20 22 27 31 32 35 43 49 54 55 56 59 57 55 52 49 44 42 39 35 33 32 32 33 35 31 28 24
25 27 27 28 28 26 27 27 27 27 26 28 28 24 22 23 22 25 27 31 35 38 41 48 55 56 59 58 58 57 53 49 46 46 42 37 35 34 35 37 36 32 29
25 27 29 30 32 34 33 30 31 32 33 30 29 31 29 24 24 27 26 29 33 37 39 43 49 55 59 59 61 61 58 55 51 49 45 42 38 37 38 39 39 37 32
23 25 28 32 34 37 39 40 40 36 35 36 36 34 32 31 30 29 26 28 32 35 38 43 46 51 56 59 60 62 62 60 58 55 52 47 44 41 43 41 40 37 34
26 29 30 32 34 37 42 44 43 44 44 43 41 41 40 37 35 34 33 32 32 35 40 42 45 49 52 55 62 62 64 64 65 63 60 59 54 48 42 40 38 38 35
35 37 38 37 39 40 41 42 44 47 50 51 50 50 49 47 43 39 37 34 37 38 39 42 45 49 50 54 55 59 65 65 65 65 66 66 61 54 47 43 41 39 39
40 40 41 44 47 49 49 49 49 48 49 53 57 58 57 57 53 47 41 41 40 41 43 43 46 49 49 51 53 54 62 65 64 66 67 63 63 57 50 45 42 40 38
39 43 47 49 52 56 58 61 61 61 60 59 58 60 64 64 59 57 51 45 46 46 44 44 45 48 48 47 51 51 56 63 64 63 66 65 62 55 46 44 45 42 40
43 44 48 52 53 56 55 56 58 58 63 63 64 62 63 67 66 61 57 52 49 49 48 48 46 47 48 45 52 50 56 56 59 56 59 59 60 58 52 47 45 47 43
54 54 54 51 50 55 59 56 53 55 57 64 65 67 65 64 66 65 59 49 54 50 50 50 49 47 45 47 49 54 58 49 50 51 57 58 56 55 54 54 51 46 44
57 58 60 60 59 56 54 58 52 48 49 53 52 58 63 64 62 62 51 48 54 49 50 49 48 45 43 42 48 55 47 43 46 49 51 54 59 59 56 54 51 46 43
55 58 59 60 58 52 47 46 44 41 40 43 43 46 50 47 48 45 40 41 43 42 48 49 44 42 41 39 41 49 46 45 51 52 53 53 54 57 55 52 47 44 39
53 55 56 54 52 47 42 39 39 39 39 40 40 41 42 42 41 37 32 32 37 41 44 41 41 39 40 42 40 42 47 52 53 52 48 44 44 49 55 55 49 44 37
50 52 51 46 42 42 40 39 39 40 40 43 44 45 47 50 45 37 33 29 30 35 31 31 36 38 41 42 40 39 50 50 51 46 40 44 50 53 54 52 48 42 38
47 46 44 44 45 43 42 43 37 36 37 39 41 44 49 51 48 44 43 44 39 30 30 29 35 38 42 45 44 44 49 49 49 46 44 48 50 49 52 49 44 40 36
42 43 43 43 43 43 41 41 44 45 39 38 38 38 40 43 42 40 40 40 39 37 38 36 34 37 41 42 40 43 43 44 46 48 50 51 50 48 48 46 45 42 38
39 39 39 39 39 40 41 42 42 43 45 48 41 34 33 33 33 35 35 33 38 40 38 37 32 37 39 38 38 39 40 45 46 50 49 50 49 47 48 49 46 43 41
38 38 37 37 38 40 42 42 41 40 41 42 43 37 29 25 27 29 29 27 20 41 39 35 31 35 36 34 33 39 42 47 49 49 48 46 46 48 48 45 42 40 37
38 36 34 36 37 37 37 37 38 38 38 38 35 32 30 28 27 26 19 16 27 24 30 25 26 32 30 34 35 39 43 43 45 46 45 44 46 45 44 42 39 35 30
37 36 32 32 33 34 35 34 34 34 34 32 32 31 29 30 26 23 22 17 17 26 23 18 24 29 32 31 33 37 41 44 45 44 44 44 44 44 41 37 33 28 25
33 32 31 30 30 31 29 28 26 25 25 26 26 23 20 16 14 14 13 4 8 13 13 12 19 26 31 31 31 36 38 41 43 45 44 42 39 37 35 32 29 26 24
29 30 29 27 27 27 27 26 25 24 24 24 23 22 19 16 12 8 3 1 5 5 5 10 21 25 28 29 30 32 34 35 38 42 38 35 34 33 30 29 27 23 19
28 27 27 26 25 25 25 26 26 25 23 23 21 20 18 15 11 8 5 2 2 5 8 14 18 21 21 21 20 21 22 25 29 32 32 33 32 30 28 25 20 18 16
26 27 27 26 25 24 25 25 27 27 24 22 21 19 18 15 13 10 8 5 3 2 4 5 8 11 11 11 12 14 16 18 23 28 28 27 27 26 23 19 18 17 13
21 23 25 25 25 24 24 25 25 27 27 26 23 21 20 18 17 15 13 12 11 11 11 10 10 10 12 14 16 18 21 23 25 25 25 24 22 20 18 18 16 13 11

GFSGL_850_spd_015.txt.gz
Wind_Speed
11 12 12 12 14 14 16 17 20 22 24 26 27 27 27 26 25 24 23 23 23 23 26 30 33 34 38 40 43 46 49 49 54 48 49 42 40 40 36 35 36 35 35
12 13 15 17 19 21 21 22 23 25 25 27 29 30 31 31 30 29 29 27 28 27 26 25 30 33 37 38 40 43 46 49 50 53 50 50 49 45 41 39 37 38 38
16 18 19 20 23 26 28 29 30 31 31 30 31 33 34 35 36 36 35 34 33 31 30 30 30 29 34 36 39 41 42 44 49 53 53 48 49 47 48 44 43 42 40
15 17 19 23 26 28 29 30 32 34 36 39 40 41 41 41 42 43 43 44 43 41 38 36 34 33 33 35 37 39 39 40 44 50 53 54 53 52 50 50 51 46 44
17 18 21 25 28 30 32 33 35 38 41 43 45 47 48 49 49 49 49 48 49 51 51 48 43 38 36 35 35 37 37 40 42 48 52 53 54 57 58 57 52 47 49
19 22 24 30 32 32 35 39 43 47 49 51 51 52 54 54 53 52 52 51 51 52 55 56 55 51 45 40 38 37 35 41 44 47 48 47 56 59 60 59 54 53 52
21 24 28 31 33 36 40 44 48 51 53 54 55 56 58 58 58 56 51 47 52 55 56 56 56 57 55 51 44 41 39 39 44 49 49 54 45 52 58 60 61 59 59
27 29 31 33 37 41 44 47 49 51 54 56 57 57 59 62 59 47 42 41 48 57 57 56 52 55 56 53 52 47 46 45 43 45 55 57 50 45 48 53 59 62 57
30 32 34 38 42 44 46 48 49 51 53 55 57 58 58 62 55 46 40 43 50 57 59 61 59 60 56 44 45 49 51 51 47 43 44 50 57 46 47 44 49 52 59
31 34 38 42 44 46 47 48 50 51 54 54 54 51 49 50 45 39 33 36 43 47 52 54 53 50 48 44 45 49 49 55 50 47 45 44 46 57 50 54 53 55 55
34 39 42 41 43 44 46 47 49 51 51 49 48 45 43 41 40 32 29 31 37 42 46 46 44 42 42 44 44 48 54 52 48 48 46 47 45 46 61 59 56 57 54
38 41 41 41 41 43 44 47 47 45 44 44 44 44 42 40 38 32 30 31 34 41 47 48 45 39 41 43 44 47 48 49 47 45 47 46 47 46 48 57 63 62 54
38 40 40 41 41 41 42 44 42 38 39 41 42 43 45 45 44 38 37 37 35 37 41 42 40 45 45 45 42 47 47 45 45 46 46 45 46 45 45 47 52 57 59
39 39 39 40 41 41 41 38 36 36 38 40 42 46 48 44 40 40 43 47 49 45 45 45 45 39 38 41 41 40 45 46 45 47 47 49 45 43 44 46 48 49 50
37 37 37 39 40 41 40 36 35 34 32 37 41 43 45 46 44 40 41 42 42 43 44 46 43 39 37 38 36 31 47 46 47 41 45 46 46 45 46 46 47 48 48
35 34 35 37 38 39 40 39 33 32 30 32 33 35 40 40 41 39 41 41 41 40 41 41 41 40 36 36 35 29 26 33 39 40 43 45 46 47 45 44 46 49 47
30 31 33 34 35 38 37 37 41 39 35 33 30 32 33 37 39 39 38 39 41 38 39 41 42 37 35 32 32 26 29 29 34 39 40 42 47 47 45 45 47 46 43
27 27 29 31 32 34 33 33 35 38 41 44 39 33 32 34 34 34 35 35 37 34 35 37 38 34 30 28 29 27 26 24 29 34 37 43 47 46 44 47 47 49 45
24 25 27 28 29 30 29 30 33 36 37 39 42 38 36 34 33 34 27 26 29 34 32 30 34 32 29 30 28 28 26 26 27 30 37 39 42 45 46 47 49 48 46
21 22 24 26 26 27 27 29 32 34 36 36 37 37 36 40 38 33 31 30 30 33 33 22 22 27 26 20 24 29 27 27 27 30 34 37 41 43 45 46 46 45 45
20 20 21 22 24 24 24 26 28 31 32 32 33 32 29 31 32 31 31 30 30 31 30 26 19 15 14 16 19 24 27 26 28 30 33 36 38 40 42 42 43 41 41
18 18 18 20 21 22 22 22 24 27 28 30 32 32 30 31 30 30 29 29 27 25 24 23 21 18 16 15 16 18 20 23 25 27 29 32 34 36 38 38 38 39 38
15 16 16 17 18 19 20 20 22 24 26 27 29 31 32 32 32 31 30 28 27 25 23 20 17 15 14 14 12 12 14 18 20 21 24 26 28 31 33 33 33 33 32
13 14 14 15 16 17 18 19 20 21 23 24 26 27 29 30 31 31 31 31 28 26 24 21 19 17 14 12 10 8 6 6 7 11 14 18 22 24 25 27 27 27 29
12 12 13 14 15 16 16 17 18 19 21 22 24 25 26 26 27 28 29 29 29 29 29 27 24 20 18 14 12 10 7 4 2 3 7 10 16 18 19 21 22 23 24
11 12 12 13 13 14 15 16 16 18 19 20 21 22 23 24 25 26 26 27 27 27 27 27 27 25 26 24 20 14 11 8 5 3 3 6 10 14 15 17 20 23 25

GFSGL_850_spd_021.txt.gz
Wind_Speed
1 1 3 5 7 9 12 14 16 18 19 21 22 24 26 28 31 33 34 36 37 36 35 37 36 34 34 31 30 29 29 29 39 44 45 48 49 46 44 45 43 43 40
3 3 5 8 11 13 16 18 20 22 22 24 26 29 30 32 35 38 41 41 43 44 45 45 44 42 41 39 37 36 36 35 37 41 40 40 42 44 46 45 48 50 48
4 5 9 13 16 19 21 23 25 27 28 29 32 35 38 42 45 47 47 46 47 47 47 48 49 49 49 45 44 43 41 41 41 42 45 42 42 39 40 45 46 49 51
7 9 13 17 20 22 24 26 27 28 29 31 34 39 42 45 47 49 49 50 50 51 50 51 51 51 52 50 47 45 45 45 45 45 48 48 46 43 40 41 46 47 49
13 15 17 19 21 24 26 28 30 30 32 36 40 41 44 47 49 49 50 52 54 55 56 54 53 51 49 47 41 45 42 45 47 47 50 46 48 46 45 42 43 45 49
20 19 21 23 25 27 29 31 32 33 37 40 41 45 47 47 47 48 50 51 53 54 57 57 55 53 51 43 40 36 35 37 41 40 44 43 49 38 40 43 41 41 45
24 24 26 27 27 28 31 32 33 37 39 40 43 45 47 47 48 50 50 49 50 51 51 50 50 48 46 46 45 39 41 43 41 41 46 49 48 44 36 37 40 42 45
28 28 28 28 30 32 33 33 36 37 39 42 44 44 46 47 48 48 46 45 46 46 44 43 39 39 37 33 34 37 41 45 44 43 49 54 50 48 39 43 42 45 46
31 30 29 29 30 32 31 35 35 38 40 42 43 44 46 47 46 45 41 41 43 42 38 34 33 36 32 29 32 38 42 43 39 36 41 45 50 48 45 42 44 43 45
31 30 28 29 29 29 32 34 35 38 40 41 43 43 44 45 41 39 35 36 37 38 39 37 34 32 30 29 33 38 44 45 44 44 42 44 41 47 51 49 52 46 45
29 28 28 29 29 31 33 32 34 37 39 41 42 43 42 40 38 36 32 29 33 37 40 40 40 35 35 33 33 37 41 41 42 44 47 48 48 45 45 50 51 52 50
27 27 27 27 28 30 32 32 33 35 38 40 41 43 41 38 34 34 31 27 30 35 39 41 45 38 37 38 39 43 43 43 45 43 47 47 45 40 42 45 48 49 51
27 27 27 27 27 28 29 30 32 32 36 39 40 41 42 41 41 39 34 30 32 36 40 41 41 42 43 44 43 43 41 44 49 51 51 51 49 54 42 45 46 50 48
27 27 27 27 27 27 28 29 31 32 34 37 37 39 42 42 38 38 36 42 40 39 41 43 45 42 42 44 48 47 47 48 47 48 49 50 47 46 44 45 42 46 45
28 27 27 27 27 27 27 28 29 29 31 32 32 33 37 38 36 33 35 37 37 38 39 42 44 42 42 44 41 43 47 48 49 50 48 45 43 44 46 52 44 45 42
27 26 26 27 27 27 29 29 24 26 27 26 26 24 27 28 29 31 31 32 34 32 33 33 33 33 36 37 38 37 35 40 43 43 41 42 42 43 41 43 44 47 43
27 26 26 26 26 27 28 29 32 24 22 23 23 24 23 25 26 28 30 29 30 30 26 27 29 30 33 35 36 37 41 33 34 34 34 36 39 45 49 41 44 32 39
26 26 26 25 25 25 26 27 27 28 27 23 20 24 23 24 23 26 24 27 25 23 25 27 29 30 31 32 33 35 34 29 28 30 32 34 33 37 26 35 33 36 41
25 24 24 24 23 24 24 24 23 23 23 23 21 19 21 21 24 24 23 26 28 28 28 29 29 29 30 30 30 30 29 27 26 28 31 32 31 28 25 25 28 30 31
24 24 23 22 22 22 22 21 21 21 21 20 20 21 22 24 25 25 26 26 28 29 30 30 30 29 29 29 29 28 26 24 25 24 26 29 29 27 24 20 26 30 34
23 23 22 21 21 21 19 18 18 19 19 19 18 19 19 20 21 22 24 24 25 26 28 29 30 30 29 29 28 28 26 24 21 19 19 18 21 26 19 16 17 22 28
23 21 21 20 19 19 17 17 17 18 17 18 17 15 17 17 18 19 20 22 22 23 24 26 28 29 30 29 29 28 27 25 22 20 17 15 14 13 15 19 20 22 25
22 21 20 19 18 17 16 15 16 16 17 16 17 17 17 17 18 19 20 21 21 22 23 24 26 28 28 28 27 27 27 24 22 20 17 15 13 10 9 10 14 17 20
20 20 19 18 18 17 16 15 15 16 17 17 17 17 18 18 19 19 20 20 21 21 21 23 23 25 26 27 27 27 27 24 20 17 15 13 11 10 8 7 7 9 13
19 18 18 18 18 17 17 16 16 17 18 19 19 20 19 19 20 20 20 21 21 21 21 21 22 22 24 25 26 28 27 26 19 15 13 11 9 8 6 4 2 4 7
17 17 17 17 17 17 17 16 16 17 18 18 18 19 20 20 20 20 21 21 21 21 21 21 20 20 20 22 23 25 26 25 21 16 13 11 9 8 6 4 2 3 6

GFSGL_850_spd_024.txt.gz
Wind_Speed
8 7 5 3 3 5 7 10 12 14 15 16 18 20 22 23 26 29 31 34 35 37 38 41 42 40 40 39 38 37 36 36 42 47 47 47 46 44 38 35 33 35 39
9 7 4 4 5 8 10 13 15 18 20 21 22 24 27 30 33 36 39 42 44 45 44 43 44 44 45 45 43 42 42 41 43 48 47 48 49 47 46 42 38 35 35
10 8 7 7 8 11 15 18 21 23 26 27 29 30 32 35 37 40 43 46 47 48 48 47 45 44 46 46 46 46 46 45 44 47 49 46 48 49 49 48 45 41 38
13 12 11 10 12 15 18 22 24 26 29 30 32 33 36 37 40 43 45 47 47 47 47 48 49 47 46 44 45 45 43 43 43 43 44 42 45 48 48 49 50 47 44
17 17 16 16 16 18 21 24 26 29 31 32 33 35 36 38 41 43 44 45 47 48 48 49 49 47 45 41 39 43 41 39 39 38 37 33 35 35 40 42 46 46 48
21 22 22 20 19 21 24 26 29 31 33 33 35 36 37 40 41 41 43 46 47 48 50 49 48 45 42 37 32 31 32 35 39 39 40 37 38 33 30 34 40 40 44
24 26 26 25 24 26 27 28 30 33 34 35 36 36 38 40 40 41 43 45 47 47 47 45 43 39 38 38 36 30 30 29 31 36 44 47 42 40 36 35 37 40 46
29 29 29 28 28 28 29 31 33 34 34 36 35 37 39 40 40 42 43 44 44 44 42 40 38 37 34 29 30 32 32 32 31 31 34 39 40 39 39 42 45 39 41
32 31 31 30 30 30 32 34 34 34 35 36 36 38 40 40 39 41 42 42 43 42 39 35 33 34 31 27 30 34 37 39 37 34 35 37 38 38 38 38 42 41 51
30 31 31 30 30 31 34 34 33 34 36 36 36 37 38 38 37 38 38 37 39 39 36 35 35 29 28 29 32 36 41 43 43 42 41 41 40 39 34 33 39 45 43
28 29 30 29 30 31 34 34 34 34 35 35 37 37 37 36 36 37 36 30 32 35 37 39 38 35 32 31 32 37 43 43 45 47 50 48 45 41 36 42 42 39 47
30 30 29 28 29 33 33 33 33 33 34 34 36 37 37 36 35 36 33 25 27 32 38 40 41 36 36 38 38 38 38 40 44 46 49 51 48 48 49 47 44 41 44
31 30 29 29 31 32 32 33 32 31 31 33 35 36 37 35 34 34 31 31 29 31 35 36 36 37 36 35 38 37 37 41 43 42 45 46 45 47 47 46 46 46 46
32 30 29 31 31 31 31 31 31 29 29 30 33 34 35 35 34 32 33 36 36 35 39 41 37 38 41 35 31 31 30 31 31 36 41 43 42 41 42 43 44 43 43
31 30 30 31 31 30 29 29 28 26 27 29 31 31 32 32 30 27 29 32 34 35 36 39 36 34 34 33 31 31 30 31 33 30 33 34 35 38 41 40 40 40 41
32 31 31 31 29 29 29 28 24 24 23 25 26 22 23 24 23 24 25 27 28 30 31 32 33 31 31 31 32 33 31 31 32 31 32 33 33 35 38 41 42 42 43
32 31 31 29 28 28 27 27 29 23 20 22 24 22 21 21 20 20 22 23 25 26 25 26 28 29 30 30 31 32 33 32 31 30 31 32 32 34 37 40 42 39 39
30 31 29 28 28 27 26 26 26 27 28 21 18 22 19 21 20 18 20 23 23 23 25 26 27 29 30 31 31 32 32 32 31 30 30 31 32 33 34 36 36 37 29
29 27 27 28 27 26 24 24 24 25 25 24 19 17 18 20 18 17 19 21 23 23 25 26 27 29 30 31 32 32 32 32 32 31 29 28 29 30 32 32 32 28 28
27 27 27 27 25 23 23 23 23 23 22 21 20 19 19 21 19 18 18 20 21 22 24 26 26 28 29 30 32 32 32 33 33 32 31 29 26 25 26 26 26 27 22
26 26 26 25 23 22 23 22 21 21 20 20 18 17 18 19 19 19 20 20 21 22 24 25 26 27 28 30 31 32 32 34 35 33 32 30 28 27 25 22 20 17 16
26 25 24 24 22 22 21 21 20 20 20 19 18 16 17 17 18 18 19 19 20 21 23 24 25 25 26 27 30 32 32 34 38 35 32 30 27 25 24 21 18 15 13
26 25 24 23 22 21 20 20 20 20 19 18 19 19 18 18 18 18 19 20 21 21 21 23 25 25 24 25 26 27 29 31 38 35 30 27 25 23 21 19 15 12 12
25 23 22 21 20 20 19 19 20 20 20 19 19 20 20 21 20 21 21 21 22 22 21 23 24 24 24 24 24 25 26 28 35 31 25 23 21 19 17 15 13 11 9
22 21 20 19 19 20 20 20 20 19 20 20 20 20 20 21 20 21 21 21 21 21 21 21 22 23 23 22 21 24 26 26 32 27 23 20 18 16 14 12 10 8 6
18 18 18 18 19 19 19 19 19 19 19 19 19 19 20 20 20 20 20 21 21 21 20 20 20 20 20 20 19 22 24 24 27 25 23 20 17 15 13 12 9 7 6

GFSGL_850_spd_027.txt.gz
Wind_Speed
10 9 9 8 7 6 4 3 5 7 10 12 14 16 17 19 20 21 23 25 28 31 33 35 36 37 38 39 40 40 39 37 42 50 47 47 51 52 49 47 44 39 37
14 13 13 12 9 6 4 5 8 11 14 16 17 19 21 23 25 26 28 30 34 36 38 39 40 41 41 39 39 40 43 42 42 49 48 48 47 48 52 51 48 46 43
18 17 16 13 10 7 5 8 11 14 17 20 22 24 26 27 28 29 30 33 36 38 40 41 41 41 42 42 42 42 42 43 43 42 48 40 44 48 48 51 52 50 47
20 19 17 15 12 10 9 11 14 17 20 23 25 27 28 29 30 31 34 36 38 39 40 41 42 42 42 41 41 40 38 39 40 41 39 38 36 34 43 46 50 47 47
22 21 19 18 17 15 14 14 15 18 20 24 27 29 29 30 30 33 35 37 39 41 42 42 42 43 43 40 35 34 31 31 33 36 40 35 35 29 27 30 37 39 46
24 22 22 23 22 20 19 18 18 20 24 27 29 30 30 31 31 33 35 38 39 41 43 43 43 43 40 38 34 29 27 30 33 35 37 34 37 34 35 36 39 39 48
25 24 26 28 27 25 24 22 21 23 26 29 31 31 32 31 32 34 35 37 39 41 42 43 42 40 38 36 33 29 26 25 25 29 36 35 35 32 30 33 33 37 46
26 28 30 31 30 29 27 25 25 26 28 32 32 32 33 32 32 34 36 37 39 40 40 40 39 37 34 30 29 31 32 33 32 32 34 38 36 35 34 36 39 39 41
28 31 31 32 32 31 29 27 26 27 31 33 32 32 33 32 33 35 36 37 39 40 38 36 34 35 31 26 31 36 38 38 35 34 35 34 33 32 31 33 38 38 42
23 23 25 28 30 30 29 27 27 28 33 34 33 33 34 33 33 35 35 36 37 37 36 37 36 28 29 30 32 35 39 41 44 46 46 46 43 40 35 34 37 41 42
21 24 25 27 28 28 28 27 27 32 33 34 34 34 33 33 33 33 32 31 31 33 35 37 35 32 30 30 32 38 41 40 40 38 42 42 41 40 41 41 40 39 43
23 24 26 27 28 28 27 27 30 33 34 33 34 34 32 32 32 31 30 25 23 27 33 34 36 35 35 34 33 33 33 34 39 39 39 39 37 36 38 39 39 39 41
24 25 26 27 27 28 29 30 32 33 34 33 34 34 33 33 32 28 26 25 24 25 30 32 32 35 35 39 36 32 31 33 34 34 34 34 32 31 30 33 36 40 43
27 28 27 27 28 29 30 31 33 33 31 32 32 31 33 33 32 28 27 28 29 29 31 36 36 33 30 30 29 26 27 28 29 31 32 32 31 29 30 29 31 31 35
28 28 27 27 28 29 29 30 31 30 30 31 30 29 31 32 30 23 23 25 25 29 31 30 31 31 30 28 26 26 26 26 27 28 29 31 32 30 31 31 33 35 39
29 28 27 28 29 30 31 31 28 28 29 29 25 25 25 26 23 21 21 21 24 29 27 29 28 27 28 28 29 28 27 27 26 27 28 28 30 31 33 33 34 36 39
28 27 28 29 30 30 30 30 29 24 26 25 23 25 25 26 19 19 18 19 25 22 24 24 24 25 26 27 28 29 30 28 27 27 28 29 29 29 32 33 33 35 38
25 27 29 30 30 30 29 28 27 28 29 22 19 23 25 23 21 16 16 21 21 19 20 21 22 23 25 26 28 29 30 30 29 29 30 30 30 30 30 31 34 36 38
26 27 28 29 29 29 28 28 27 27 27 26 20 17 21 23 19 17 19 19 21 21 21 21 21 23 24 25 27 29 31 32 31 31 34 34 32 32 32 31 32 31 31
25 26 28 28 29 29 29 28 27 26 26 24 22 19 17 21 19 16 15 17 18 19 20 21 22 23 24 25 27 29 31 32 32 34 36 39 36 32 32 32 31 32 31
25 26 28 29 30 29 29 28 27 26 24 22 20 18 17 19 20 19 18 17 19 20 21 22 22 23 24 25 26 27 29 32 32 35 38 41 37 33 31 30 29 28 28
25 26 28 29 28 28 27 27 27 26 24 22 19 18 17 19 19 20 20 20 21 21 22 24 24 25 25 24 25 26 28 30 32 36 39 39 35 32 30 29 27 26 24
25 26 26 26 26 26 27 25 25 24 23 22 20 19 18 19 20 21 22 22 23 22 22 23 24 24 23 22 22 22 26 28 29 33 38 37 33 30 27 26 25 23 21
24 24 24 24 23 24 24 24 23 23 22 22 21 20 20 21 21 21 21 21 22 21 21 21 22 23 22 22 21 20 21 22 24 31 33 31 29 27 24 22 21 19 18
18 19 20 20 20 21 21 21 22 22 21 21 21 21 21 21 21 20 20 21 21 20 20 19 20 20 20 20 19 17 17 17 22 29 27 26 25 23 21 19 18 16 14
13 14 14 15 16 18 19 20 20 20 20 20 20 21 21 21 20 19 19 21 20 20 20 19 18 18 19 18 17 15 14 17 20 25 22 22 23 22 20 18 16 15 14

GFSGL_850_spd_030.txt.gz
Wind_Speed
14 14 13 12 11 10 9 7 6 6 6 6 8 10 11 13 15 17 18 19 20 21 23 25 27 29 32 33 34 34 32 27 30 48 39 40 45 48 51 48 48 48 48
17 17 16 15 14 12 11 10 8 7 6 8 10 13 15 17 18 19 20 20 22 24 26 28 30 31 33 33 33 34 34 32 29 40 45 35 33 38 44 50 49 44 48
20 19 19 18 16 16 15 12 9 7 8 10 13 15 18 20 22 23 23 23 24 26 28 30 31 33 34 34 34 35 34 34 31 33 48 37 35 31 33 38 43 47 45
23 23 22 20 19 19 18 15 12 10 10 12 14 18 21 23 24 24 25 25 27 28 30 32 33 34 34 36 37 36 34 32 28 30 36 39 34 31 29 32 36 31 37
26 25 24 23 22 22 21 18 15 14 14 15 16 19 22 24 26 26 27 28 29 30 32 33 34 35 36 36 36 34 32 31 28 31 34 35 33 30 29 30 34 37 41
29 27 26 26 26 25 24 22 20 19 19 18 19 20 23 25 27 28 28 29 30 31 33 34 35 36 35 35 34 32 26 28 31 31 33 33 33 31 32 31 31 34 41
30 28 27 27 27 27 27 26 26 24 23 22 22 23 24 27 29 29 29 30 31 31 33 34 36 35 35 33 33 29 25 24 25 29 34 34 35 29 29 31 30 32 37
27 28 27 28 30 31 31 30 30 29 27 24 24 24 26 28 30 30 30 30 31 32 33 34 35 35 33 31 29 32 33 31 30 30 32 35 36 35 37 41 42 42 40
23 25 27 28 31 33 34 34 32 30 28 26 25 26 28 30 30 30 30 31 31 32 32 33 34 34 31 26 31 35 36 37 37 38 34 34 36 36 36 40 44 40 43
19 21 23 26 29 31 33 33 32 29 27 27 27 28 30 32 31 30 30 30 31 32 32 32 30 25 27 28 31 35 42 41 32 33 33 27 25 34 37 36 39 42 42
17 17 19 22 25 27 29 30 29 28 28 28 29 30 32 32 30 30 30 28 28 29 29 29 28 26 28 29 30 35 39 39 40 40 40 40 38 37 35 29 32 35 40
18 18 18 21 23 25 26 27 27 27 29 29 30 31 33 31 30 29 29 28 26 25 27 25 26 27 30 34 34 34 32 32 35 36 35 35 35 34 33 30 27 29 34
23 24 23 23 26 26 26 27 28 29 31 31 32 33 33 32 31 30 26 24 24 23 23 24 28 35 34 33 32 31 31 29 26 27 28 30 29 31 33 33 30 28 31
26 28 26 25 27 28 27 28 29 31 31 32 33 33 31 31 31 30 26 25 23 21 23 31 35 32 30 30 29 27 26 25 25 24 24 27 29 29 30 29 29 28 29
29 29 27 27 28 29 29 29 30 31 32 32 32 31 31 31 29 28 20 20 21 23 28 31 30 29 29 27 26 25 25 25 24 23 24 27 27 27 28 27 24 27 31
29 29 29 28 28 29 30 30 31 32 32 33 31 30 30 31 27 26 18 18 19 28 28 30 28 26 26 26 26 26 25 26 26 27 26 26 26 27 28 28 25 26 30
29 29 28 28 28 29 30 30 31 32 32 32 31 30 29 28 28 25 17 16 24 26 25 24 24 24 24 24 24 25 26 26 28 28 28 29 26 27 28 30 30 27 28
27 28 27 27 28 29 31 31 32 33 32 29 28 28 28 26 26 22 16 18 22 21 21 21 22 22 22 23 23 24 25 26 27 28 29 31 27 27 31 32 31 30 31
24 24 25 27 28 30 31 32 32 32 32 32 27 24 26 26 25 22 21 21 21 21 20 20 20 21 22 22 23 24 25 25 26 28 30 32 29 27 33 32 32 31 31
22 24 26 28 29 30 31 32 32 31 31 30 29 23 23 25 23 22 21 20 20 21 21 22 22 22 23 23 24 25 26 25 26 27 30 32 32 28 33 32 31 31 31
22 24 26 27 28 30 31 32 32 31 30 29 27 24 22 23 23 23 21 19 19 21 22 23 23 23 24 24 24 25 26 25 25 26 30 33 33 34 33 31 29 28 28
20 22 23 25 26 27 28 29 30 30 30 29 27 24 22 24 24 23 22 21 21 22 23 24 24 24 23 24 23 24 25 25 23 24 28 31 33 34 32 30 28 27 26
19 21 23 24 25 26 28 28 29 29 29 27 26 25 23 24 24 23 23 22 23 23 23 23 23 22 21 22 21 22 23 22 20 22 27 30 32 32 30 29 27 26 24
19 20 20 20 21 23 24 26 26 26 26 26 26 25 24 23 23 23 23 22 22 22 22 21 21 22 20 20 20 20 20 17 16 19 25 28 29 28 27 26 25 23 22
16 15 15 16 17 18 19 21 22 23 23 23 23 22 22 22 22 22 22 22 22 22 21 20 21 21 21 20 19 19 18 15 14 16 25 26 24 23 23 23 23 22 20
14 13 13 14 15 16 17 19 20 20 21 21 21 20 21 21 21 21 20 21 21 22 21 20 22 21 21 20 19 18 17 14 12 10 19 22 22 21 21 21 21 20 19

GFSGL_850_spd_033.txt.gz
Wind_Speed
20 18 17 15 14 13 12 10 8 7 7 6 6 7 8 10 12 14 16 18 18 19 20 21 21 23 24 26 27 28 29 29 33 49 46 47 48 49 48 46 46 48 49
21 19 17 16 16 16 14 12 11 10 8 7 7 7 8 11 14 17 19 20 20 21 21 22 23 25 26 27 28 30 31 32 33 43 49 48 46 47 47 48 48 46 45
23 21 20 20 20 18 16 16 14 13 11 9 8 8 10 13 17 19 21 22 22 22 23 24 25 26 27 28 30 32 33 34 35 38 51 44 46 42 45 45 44 43 40
25 23 23 22 22 20 20 19 18 16 14 12 10 11 13 15 17 20 22 24 24 24 25 26 27 27 29 31 32 33 34 35 37 39 46 47 42 41 31 34 40 38 41
27 25 25 23 24 25 23 22 21 20 18 16 15 15 15 16 18 21 23 25 26 26 26 27 28 29 30 32 33 34 34 35 36 38 41 42 37 37 31 35 36 38 39
28 26 26 26 27 27 25 24 24 23 22 21 20 19 19 20 21 22 23 24 26 28 28 28 29 30 31 32 32 33 30 29 31 33 36 38 39 40 37 34 32 35 40
28 27 28 28 28 27 26 27 27 26 26 25 24 23 23 23 23 24 25 26 28 29 29 29 30 30 31 32 33 32 30 27 26 31 37 38 39 38 39 39 38 40 44
24 27 28 29 27 27 28 29 29 29 29 29 28 26 25 25 24 26 26 28 29 30 30 29 30 30 30 31 31 33 33 33 34 34 38 42 43 42 42 46 46 45 45
22 23 24 26 28 29 30 30 30 31 31 31 30 28 27 26 26 28 28 29 30 31 30 29 29 30 29 23 27 32 35 35 34 28 28 32 34 36 33 35 38 42 44
19 18 19 22 25 28 28 30 31 32 33 32 31 29 28 28 28 28 29 30 31 31 30 29 28 27 23 24 27 29 34 39 39 38 41 42 39 35 31 32 35 38 39
15 16 19 21 23 24 25 28 30 32 32 32 30 30 30 30 29 29 29 30 30 30 30 30 29 26 22 22 24 32 33 31 37 38 39 37 34 32 30 27 27 30 34
17 19 21 21 21 21 23 26 28 30 30 30 30 31 31 31 31 30 30 30 30 29 29 29 28 21 23 26 31 30 30 30 32 31 32 33 33 32 30 31 32 34 36
19 21 23 24 25 25 24 25 27 29 30 31 31 32 32 32 32 31 31 30 29 25 26 24 24 29 32 33 28 27 28 28 27 28 29 30 30 31 32 31 31 30 32
23 24 26 27 29 29 27 28 30 31 32 31 31 32 32 32 32 31 29 27 24 22 22 26 29 31 33 30 27 24 24 24 24 25 27 29 29 30 30 29 29 30 31
29 28 29 32 32 32 30 30 31 32 32 32 32 32 32 33 31 31 28 22 23 21 23 32 33 31 29 27 25 24 23 22 23 25 28 27 29 31 31 28 28 29 30
36 35 34 34 34 33 32 31 32 32 32 33 33 34 34 35 33 25 19 21 18 24 30 31 31 29 26 25 24 23 23 22 23 25 26 28 30 32 30 29 29 30 32
34 35 34 33 32 31 30 31 31 31 33 34 35 35 35 34 30 22 21 20 21 28 30 30 29 26 24 24 23 23 23 23 23 24 27 28 29 32 31 30 32 34 35
29 30 29 29 28 28 28 28 29 31 33 35 35 34 33 33 31 29 20 20 26 29 26 27 25 24 23 23 23 23 23 24 24 25 26 28 29 31 32 30 32 34 35
26 26 26 27 26 26 27 28 30 32 34 36 36 35 32 31 32 30 25 27 29 27 25 25 24 23 23 23 24 24 24 25 25 25 25 27 28 31 33 31 32 33 33
21 22 21 22 24 25 27 29 30 32 33 34 35 34 29 32 30 30 28 28 28 25 25 25 23 23 23 24 25 25 25 25 24 24 24 25 27 30 32 31 34 34 33
18 19 20 22 24 25 27 28 29 31 33 33 34 32 29 28 29 29 28 29 25 24 24 24 24 24 24 24 25 25 24 24 22 22 23 23 26 30 30 31 33 32 31
17 18 19 20 22 23 24 26 27 28 30 31 32 31 27 26 28 26 28 28 24 23 24 25 25 24 24 24 23 23 23 22 21 20 20 22 25 27 28 31 32 31 30
15 16 18 19 20 21 22 22 23 24 26 27 28 28 27 27 27 28 28 28 26 24 24 25 24 22 22 22 22 22 22 20 20 18 18 21 25 26 27 30 30 30 29
14 15 16 16 17 18 19 20 21 23 24 24 23 24 25 25 25 25 24 25 24 23 23 23 23 21 20 21 21 21 21 20 20 17 16 19 22 24 26 27 27 26 26
13 14 14 15 15 16 18 19 20 21 22 22 22 22 22 22 22 22 22 22 22 22 21 22 21 21 21 21 20 20 21 19 19 17 16 17 18 23 24 24 24 24 23
13 13 14 14 16 17 18 19 20 20 21 21 21 21 21 21 21 21 20 21 20 20 20 21 20 21 22 22 20 21 21 20 19 16 16 17 16 19 23 22 21 20 20